sat.trackr.live / text

‹ back to catalog

STARLINK-36360

NORAD 68402 · 2026-063Y

PAYLOAD ACTIVE UNKNOWN

§ Identity

Operator
Country
US
Launch date
2026-03-26
Launch site
AFWTR
Launch vehicle
Mass (kg)
RCS (m²)

Purposes: comms

External: N2YO · Heavens-Above · Gunter

§ Orbital elements

Epoch: 2026-05-25T03:41:08.703744Z

Period
93.91 min
Inclination
97.2857°
Eccentricity
0.0001548
Mean motion
15.33457069 rev/d
Perigee alt
464.4 km
Apogee alt
466.6 km
Semi-major
6,843.6 km
B*
5.7778e-4
RAAN
287.7190°
Arg perigee
84.0931°
Mean anomaly
276.0488°
Rev number
961

§ Raw data

STARLINK-363601 68402U 26063Y   26145.15357296  .00018631  00000+0  57778-3 0  99982 68402  97.2857 287.7190 0001548  84.0931 276.0488 15.33457069  9611

JSON: /api/v1/satellites/68402 · /tle

For live sub-satellite position, see the globe view (requires WebGL).

§ Visibility from observer

Set your observer location to see the next 7 days of passes ≥ 10°. The values pass through the URL so the page stays shareable.

No JS? Fill the form by hand. The geolocation button needs JavaScript.